[[{"header":{"parameterUnit":"m.s-1","parameterCategory":1,"la1":30.2991,"la2":30.254,"lo1":-89.0895,"lo2":-89.0444,"dy":0.0017,"dx":0.0017,"nx":28,"ny":28,"refTime":"2024-10-13T03:00:00:Z","depth":0,"parameterNumber":2,"parameterNumberName":"U-component_of_WINDS"},"data":[0,0,0,0,0,0,0,0,0,0,0,0,0,0,0,0,0,0,0,0,0,0,0,0,0,0,0,0,0,0,0,0,0,0,0,0,0,0,0,0,0,0,0,0,0,0,0,0,0,0,0,0,0,0,0,0,0,0,5.0392,5.0395,0,5.0593,5.0596,5.0598,5.0542,5.0538,5.0534,5.053,5.0738,5.0747,5.0756,0,0,0,0,0,0,0,0,0,0,0,0,0,4.9962,4.997,5.0392,5.0395,5.0397,5.0593,5.0596,5.0598,5.0543,5.0538,5.0533,5.0528,5.0735,5.0746,5.0757,0,0,0,0,0,0,0,0,0,0,0,0,0,5.0154,4.9973,5.0392,5.0393,5.0395,5.0592,5.0596,5.0599,5.0544,5.0537,5.0531,5.0526,5.0731,5.0745,5.0759,5.0968,0,0,5.0802,5.0808,0,0,0,0,0,0,0,0,5.0144,5.017,5.039,5.0393,5.0396,5.0536,5.052,5.0723,5.0545,5.0487,5.053,5.0523,5.0676,5.0694,5.0745,5.0978,5.0987,5.0803,5.0812,5.0818,5.0822,0,0,0,0,0,0,0,5.013,5.0161,5.0472,5.0393,5.0397,5.0384,5.0404,5.0558,5.0614,5.0492,5.0488,5.0513,5.0676,5.0732,5.075,5.099,5.0803,5.0815,5.0824,5.0829,5.1402,5.1409,0,0,0,0,0,0,5.0115,5.0151,5.0465,5.0478,5.0252,5.0397,5.042,5.0497,5.0612,5.0623,5.0518,5.0509,5.0711,5.0734,5.0757,5.1008,5.0817,5.0831,5.0839,5.1395,5.1404,5.1411,0,0,0,0,0,0,5.0106,5.0143,5.0457,5.0313,5.0352,5.041,5.0498,5.0505,5.056,5.0631,5.0641,5.0564,5.0707,5.0737,5.0915,5.1014,5.0837,5.085,5.1387,5.1398,5.1407,5.1512,0,0,0,0,0,0,5.0093,5.014,5.022,5.0316,5.036,5.0612,5.0504,5.0513,5.0584,5.0575,5.0678,5.0689,5.0705,5.0895,5.0929,5.103,5.0861,5.1379,5.1392,5.1404,5.15,5.1524,5.1545,0,0,0,0,0,5.0078,5.0243,5.0224,5.0263,5.0461,5.0618,5.0643,5.0658,5.0592,5.0673,5.0719,5.0685,5.0998,5.0913,5.0952,5.1059,5.1373,5.1388,5.1403,5.149,5.152,5.1545,0,0,0,0,0,0,5.0158,5.0255,5.0236,5.0436,5.0519,5.0608,5.071,5.0689,5.0793,5.0781,5.0795,5.0819,5.1,5.1048,5.0952,5.1266,5.1176,5.12,5.1228,5.1258,5.128,5.1264,5.0872,0,0,0,0,0,5.0199,5.0318,5.0396,5.0565,5.0608,5.0652,5.0721,5.0725,5.0812,5.0847,5.0905,5.0992,5.1109,5.1186,5.1298,5.1507,5.1528,5.1599,5.1622,5.164,5.166,5.1772,5.1804,5.1461,5.1461,5.1461,0,0,5.0285,5.0352,5.0427,5.0583,5.0647,5.077,5.0682,5.0816,5.0907,5.0867,5.1038,5.1085,5.1182,5.1375,5.1464,5.142,5.176,5.166,5.1674,5.1684,5.1791,5.1824,5.1852,5.1472,5.147,5.1468,0,0,5.0503,5.0567,5.0713,5.078,5.0878,5.0907,5.0942,5.1035,5.1063,5.1235,5.1207,5.1316,5.1519,5.1588,5.165,5.1894,5.1867,5.1931,5.2049,5.2158,5.2185,5.2209,5.2294,5.2325,5.1951,5.1951,5.1951,0,5.0597,5.078,5.0791,5.0927,5.0996,5.0965,5.1114,5.1178,5.1309,5.1357,5.1307,5.1559,5.1623,5.1831,5.189,5.1943,5.1982,5.1918,5.218,5.2204,5.2227,5.2308,5.234,5.1958,5.1957,5.1956,5.1956,0,5.089,5.1017,5.1124,5.1249,5.1331,5.1473,5.1505,5.1587,5.1584,5.1617,5.1792,5.1867,5.1993,5.2043,5.2042,5.2251,5.2221,5.2176,5.2085,5.2266,5.2343,5.2374,5.1968,5.1965,5.1963,5.1961,0,0,5.1163,5.1292,5.1331,5.1387,5.1493,5.1592,5.1733,5.1855,5.1923,5.2015,5.2132,5.2304,5.2262,5.2332,5.2339,5.2435,5.262,5.2377,5.238,5.2418,5.2854,5.2886,5.2921,5.2604,5.261,5.2615,5.2845,0,5.1389,5.1634,5.1648,5.1871,5.1988,5.196,5.2082,5.216,5.2196,5.23,5.234,5.246,5.2397,5.2439,5.2533,5.2578,5.2708,5.2562,5.2712,5.2717,5.2686,5.2962,5.2997,5.321,5.2875,5.288,5.2884,0,5.1685,5.1783,5.2017,5.2105,5.2155,5.2264,5.2376,5.2477,5.2566,5.2584,5.2663,5.2655,5.2799,5.2704,5.2901,5.2802,5.2864,5.2896,5.2905,5.2918,5.281,5.298,5.3279,5.331,5.2932,5.2928,5.2924,0,5.1858,5.205,5.2214,5.2263,5.2371,5.2447,5.2496,5.2578,5.265,5.2749,5.2796,5.291,5.2973,5.3062,5.3085,5.3015,5.3282,5.319,5.3301,5.33,5.3357,5.3353,5.3667,5.3401,5.3401,5.34,5.3399,0,5.2107,5.2251,5.2293,5.2393,5.2553,5.2569,5.2727,5.277,5.2844,5.2952,5.2936,5.3039,5.3065,5.3172,5.3192,5.3351,5.3381,5.3399,5.3402,5.34,5.3397,5.3439,5.3424,5.3408,5.3407,5.3405,5.3403,0,5.2327,5.2361,5.2538,5.2625,5.265,5.2764,5.2838,5.2935,5.2968,5.3106,5.3139,5.3191,5.3317,5.3349,5.35,5.3513,5.37,5.3691,5.367,5.3669,5.3777,5.3766,5.4129,5.4176,5.3881,5.3884,5.3886,0,5.2483,5.2593,5.2691,5.2762,5.2813,5.2929,5.3001,5.3021,5.3097,5.3206,5.3289,5.3413,5.3512,5.3714,5.3765,5.388,5.3872,5.3991,5.3889,5.3882,5.3871,5.3863,5.3873,5.401,5.4013,5.4015,5.4018,0,5.2755,5.2766,5.2871,5.2983,5.307,5.3159,5.3244,5.3303,5.3334,5.3421,5.3549,5.3626,5.3778,5.3901,5.4016,5.4066,5.4048,5.4049,5.4081,5.4078,5.406,5.4069,5.372,5.4041,5.4038,5.4037,5.4035,5.4034,5.2947,5.3042,5.3125,5.3242,5.3308,5.3388,5.3482,5.3526,5.3633,5.3757,5.3763,5.3901,5.3986,5.4139,5.4196,5.4304,5.4268,5.4314,5.4325,5.4336,5.4344,5.4045,5.4325,5.4325,5.4324,5.4324,5.4323,0,5.3216,5.3268,5.3376,5.3494,5.3586,5.356,5.3652,5.3731,5.3852,5.3933,5.403,5.4176,5.4294,5.4355,5.4472,5.4547,5.4541,5.4577,5.4571,5.4582,5.4371,5.433,5.458,5.458,5.458,5.458,5.4579,5.4579,5.3367,5.3525,5.3546,5.3737,5.3789,5.3923,5.3977,5.4051,5.4114,5.4277,5.4375,5.4413,5.4486,5.4608,5.4715,5.473,5.4773,5.4813,5.4823,5.4624,5.4597,5.4572,5.4535,5.4823,5.4823,5.5025,5.5027,5.5028]},{"header":{"parameterUnit":"m.s-1","parameterCategory":1,"la1":30.2991,"la2":30.254,"lo1":-89.0895,"lo2":-89.0444,"dy":0.0017,"dx":0.0017,"nx":28,"ny":28,"refTime":"2024-10-13T03:00:00:Z","depth":0,"parameterNumber":3,"parameterNumberName":"V-component_of_WINDS"},"data":[0,0,0,0,0,0,0,0,0,0,0,0,0,0,0,0,0,0,0,0,0,0,0,0,0,0,0,0,0,0,0,0,0,0,0,0,0,0,0,0,0,0,0,0,0,0,0,0,0,0,0,0,0,0,0,0,0,0,1.4579,1.458,0,1.4706,1.4707,1.4708,1.4729,1.4728,1.4727,1.4726,1.4858,1.4862,1.4866,0,0,0,0,0,0,0,0,0,0,0,0,0,1.4355,1.4359,1.4579,1.458,1.4582,1.4705,1.4707,1.4709,1.473,1.4728,1.4727,1.4726,1.4856,1.4861,1.4867,0,0,0,0,0,0,0,0,0,0,0,0,0,1.4464,1.436,1.4578,1.4607,1.4611,1.4705,1.4707,1.4709,1.473,1.4728,1.4727,1.4725,1.4854,1.4861,1.4868,1.4943,0,0,1.4888,1.4891,0,0,0,0,0,0,0,0,1.4458,1.4472,1.4601,1.4605,1.461,1.47,1.4676,1.4788,1.473,1.4685,1.4726,1.4724,1.4807,1.4817,1.4845,1.4949,1.4954,1.4889,1.4893,1.4896,1.4898,0,0,0,0,0,0,0,1.445,1.4467,1.4629,1.4603,1.4608,1.4614,1.4627,1.4698,1.4753,1.4689,1.469,1.4705,1.4809,1.4838,1.4848,1.4956,1.4889,1.4895,1.4899,1.4902,1.5127,1.5128,0,0,0,0,0,0,1.4437,1.4461,1.4625,1.4633,1.4528,1.4619,1.4634,1.4673,1.4753,1.4763,1.4706,1.4706,1.4827,1.484,1.4853,1.4945,1.4896,1.4902,1.4906,1.5125,1.5127,1.5129,0,0,0,0,0,0,1.4433,1.4452,1.462,1.4547,1.4569,1.4625,1.4668,1.4676,1.4706,1.4766,1.4776,1.4726,1.4826,1.4843,1.492,1.495,1.4905,1.4911,1.5122,1.5125,1.5128,1.513,0,0,0,0,0,0,1.4426,1.445,1.4479,1.4548,1.4573,1.4685,1.4669,1.468,1.4717,1.4717,1.4787,1.4797,1.4826,1.4909,1.4926,1.4958,1.4917,1.512,1.5124,1.5127,1.5128,1.5133,1.5137,0,0,0,0,0,1.4418,1.4475,1.4481,1.45,1.461,1.4686,1.4701,1.4733,1.4719,1.4749,1.4788,1.4795,1.4943,1.4917,1.4936,1.4971,1.5118,1.5123,1.5127,1.5126,1.5132,1.5137,0,0,0,0,0,0,1.441,1.4485,1.4492,1.4573,1.4623,1.469,1.4728,1.4738,1.4794,1.4792,1.4829,1.4845,1.4919,1.4953,1.4922,1.5047,1.503,1.5038,1.5022,1.5029,1.5033,1.5024,1.4922,0,0,0,0,0,1.4418,1.4473,1.4535,1.4601,1.4626,1.4672,1.4707,1.4727,1.4781,1.4802,1.4846,1.4899,1.4957,1.4994,1.5051,1.5132,1.5147,1.5165,1.517,1.5173,1.518,1.5224,1.5233,1.5143,1.5143,1.5143,0,0,1.4434,1.4482,1.4515,1.4601,1.4642,1.4698,1.469,1.4751,1.4793,1.4812,1.4886,1.492,1.4981,1.5059,1.5096,1.509,1.5208,1.5179,1.5181,1.5186,1.523,1.5238,1.5246,1.5146,1.5145,1.5145,0,0,1.4493,1.4535,1.4593,1.4634,1.4696,1.4727,1.4741,1.4806,1.4829,1.4904,1.4919,1.4969,1.5069,1.5111,1.5146,1.5218,1.5227,1.5236,1.5261,1.5303,1.531,1.5317,1.5342,1.5351,1.5242,1.5242,1.5243,0,1.4506,1.4591,1.4623,1.4682,1.4719,1.4737,1.4796,1.4835,1.4913,1.4938,1.4929,1.5053,1.5095,1.5184,1.5201,1.5228,1.5245,1.5229,1.5307,1.5313,1.532,1.5344,1.5354,1.5243,1.5243,1.5243,1.5243,0,1.4604,1.4662,1.4702,1.4776,1.4817,1.4876,1.4916,1.4955,1.497,1.5001,1.5077,1.5128,1.5195,1.5217,1.5234,1.5308,1.5301,1.5299,1.5283,1.5329,1.5352,1.5362,1.5244,1.5244,1.5244,1.5243,0,0,1.4663,1.4751,1.4765,1.4798,1.4867,1.4913,1.4972,1.5037,1.5069,1.5121,1.5172,1.5255,1.5253,1.5292,1.5313,1.535,1.5403,1.5343,1.5345,1.5352,1.5487,1.5488,1.5498,1.5409,1.5411,1.5412,1.5481,0,1.4729,1.4836,1.4865,1.4955,1.5009,1.5026,1.5077,1.5125,1.5155,1.5206,1.5239,1.5297,1.529,1.5314,1.5351,1.5389,1.5431,1.5384,1.5456,1.5459,1.5441,1.5511,1.5513,1.5575,1.5491,1.5492,1.5494,0,1.4822,1.4875,1.497,1.503,1.5054,1.51,1.5161,1.5209,1.5263,1.5282,1.5325,1.5342,1.5404,1.5384,1.547,1.5437,1.5468,1.5491,1.5494,1.5502,1.5479,1.5521,1.5596,1.5605,1.5509,1.5507,1.5506,0,1.4855,1.495,1.5019,1.5046,1.5119,1.515,1.5182,1.5234,1.5271,1.5324,1.5348,1.5408,1.5441,1.5486,1.5519,1.5501,1.5602,1.5585,1.5619,1.5618,1.564,1.5639,1.5722,1.566,1.566,1.566,1.566,0,1.4926,1.4984,1.5034,1.5077,1.5141,1.5174,1.5236,1.5269,1.5315,1.5364,1.5382,1.5427,1.5468,1.5518,1.5544,1.5611,1.5626,1.5643,1.5649,1.5641,1.5639,1.5663,1.5659,1.5662,1.5662,1.5661,1.5661,0,1.4974,1.5011,1.5087,1.5148,1.5165,1.521,1.5262,1.5304,1.5334,1.5395,1.5412,1.5459,1.5519,1.5556,1.5633,1.565,1.5724,1.5728,1.5705,1.5708,1.5741,1.5737,1.5842,1.5857,1.5785,1.5786,1.5787,0,1.5018,1.5062,1.5128,1.5161,1.5193,1.5247,1.5284,1.5317,1.5355,1.5419,1.5452,1.5514,1.5565,1.566,1.5702,1.576,1.5766,1.5799,1.5775,1.5765,1.5766,1.5763,1.5767,1.5803,1.5803,1.5804,1.5804,0,1.5091,1.5106,1.5158,1.5216,1.5259,1.5307,1.5355,1.5381,1.5422,1.5463,1.5525,1.5564,1.5642,1.5702,1.5764,1.5796,1.5807,1.5811,1.5822,1.5815,1.58,1.5808,1.5716,1.5809,1.5809,1.5808,1.5808,1.5808,1.5138,1.5178,1.523,1.5287,1.5325,1.5369,1.5411,1.5445,1.5497,1.5562,1.5578,1.5643,1.5694,1.5778,1.5812,1.5862,1.5857,1.5874,1.5878,1.5881,1.5882,1.5791,1.5874,1.5874,1.5874,1.5873,1.5873,0,1.5212,1.5245,1.5298,1.5363,1.5407,1.5412,1.5465,1.5502,1.5558,1.5605,1.5654,1.5724,1.5782,1.5827,1.5887,1.5918,1.5925,1.5933,1.5931,1.5938,1.5883,1.5867,1.5927,1.5927,1.5927,1.5927,1.5927,1.5927,1.5255,1.5322,1.5343,1.5429,1.5463,1.5525,1.5555,1.5595,1.5632,1.5709,1.5757,1.5786,1.5832,1.5895,1.5948,1.596,1.5981,1.5988,1.6,1.5948,1.5942,1.5937,1.5922,1.5992,1.5992,1.6052,1.6052,1.6053]}]]